Regional Weather Roundup
Issued by NWS Upton, NY

Current Version | Previous Version | Text Only | Print | Product List | Glossary Off
Versions: 1 2 3 4 5 6 7 8 9 10 11 12 13 14 15 16 17 18 19 20 21 22 23 24 25 26 27 28 29 30 31 32 33 34 35 36 37 38 39 40 41 42 43 44 45 46 47 48 49 50
000 ASUS41 KOKX 260505 RWROKX REGIONAL WEATHER ROUNDUP NATIONAL WEATHER SERVICE NEW YORK NY 1200 AM EST MON JAN 26 2015 NOTE: "FAIR" INDICATES FEW OR NO CLOUDS BELOW 12,000 FEET WITH NO SIGNIFICANT WEATHER AND/OR OBSTRUCTIONS TO VISIBILITY. NYZ071-072-176-178-NJZ106-104-260600- NEW YORK CITY METRO AREA CITY SKY/WX TMP DP RH WIND PRES REMARKS CENTRAL PARK CLOUDY 31 10 41 VRB6G16 30.01R WCI 25 LAGUARDIA APRT CLOUDY 30 12 47 NE10 30.00R WCI 21 KENNEDY INTL CLOUDY 32 11 41 NE13 30.01R WCI 22 NEWARK/LIBERTY CLOUDY 29 14 53 N10 30.00R WCI 20 BRNX BOT. GARD N/A N/A N/A N/A N2 30.00F TETERBORO CLOUDY 29 10 45 N9 29.99S WCI 20 $$ NYZ177-179-078>081-260600- LONG ISLAND NEW YORK CITY SKY/WX TMP DP RH WIND PRES REMARKS FARMINGDALE CLOUDY 29 10 45 NE10 30.00R WCI 20 ISLIP CLOUDY 28 10 46 N17 29.98S WCI 16 SHIRLEY CLOUDY 27 8 44 N9 30.02R WCI 18 WESTHAMPTON CLOUDY 27 8 44 N12 30.02R WCI 17 MONTAUK POINT N/A 29 9 43 N13G20 30.02R WCI 19 $$ NYZ052-065-067-260600- HUDSON VALLEY CITY SKY/WX TMP DP RH WIND PRES REMARKS WHITE PLAINS CLOUDY 23 4 44 N14 29.97S WCI 11 NEWBURGH NOT AVBL MONTGOMERY MOCLDY 20 4 50 NE9 30.01S WCI 9 POUGHKEEPSIE MOCLDY 20 3 48 N8 30.04F WCI 10 ALBANY MOCLDY 13 0 56 N6 30.11R WCI 4 $$ NJZ001-105-106-008-010-013-015-019>022-104-260600- NEW JERSEY CITY SKY/WX TMP DP RH WIND PRES REMARKS NEWARK/LIBERTY CLOUDY 29 14 53 N10 30.00R WCI 20 TETERBORO CLOUDY 29 10 45 N9 29.99S WCI 20 CALDWELL CLOUDY 28 9 44 NE5 29.99S WCI 23 MORRISTOWN CLOUDY 32 9 37 N3 29.99R SOMERVILLE CLOUDY 31 9 39 N5 29.97R WCI 26 SUSSEX CLOUDY 24 6 46 N7 29.99S WCI 16 ANDOVER N/A 25 8 48 CALM 29.97R TRENTON LGT SNOW 30 17 58 NE8 29.97R WCI 22 MILLVILLE CLOUDY 39 32 76 E10 29.93R WCI 32 ATLANTIC CITY CLOUDY 37 28 70 NE9 29.94S WCI 30 WRIGHTSTOWN LGT SNOW 30 25 80 NE10 29.96R WCI 21 TOMS RIVER CLOUDY 30 28 93 NE10 29.99R WCI 21 BELMAR CLOUDY 32 12 43 N6 29.98R WCI 26 $$ PAZ047>061-062-071-260600- EASTERN PENNSYLVANIA CITY SKY/WX TMP DP RH WIND PRES REMARKS PHILADELPHIA FLURRIES 34 25 69 NE15 29.96S WCI 24 ALLENTOWN CLOUDY 29 15 56 NE9 29.96F WCI 20 SCRANTON CLOUDY 20 7 57 NE10 29.97S WCI 9 $$ CTZ002-004>006-009-010-012-RIZ004-006-007-MAZ004-011-015-260600- SOUTHERN NEW ENGLAND IN CT CITY SKY/WX TMP DP RH WIND PRES REMARKS BRADLEY INTL PTCLDY 15 2 56 W5 30.05R WCI 8 HARTFORD MOCLDY 20 4 50 NW9 30.05R WCI 9 DANBURY MOCLDY 20 -1 40 NE6 30.02S WCI 12 WTRBRY/OXFORD PTCLDY 18 0 45 N10 29.98F WCI 6 BRIDGEPORT CLOUDY 24 6 46 N16 30.02F WCI 11 MERIDEN MOCLDY 21 4 47 N10 30.03F WCI 10 NEW HAVEN MOCLDY 23 6 48 N8 30.02F WCI 14 CHESTER FAIR 23 5 46 N8 30.01F WCI 14 GROTON CLOUDY 24 5 44 N13 30.02R WCI 12 WILLIMANTIC MOCLDY 18 6 59 CALM 30.04R IN RI CITY SKY/WX TMP DP RH WIND PRES REMARKS PROVIDENCE CLOUDY 22 7 52 NW8 30.04R WCI 12 BLOCK ISLAND CLOUDY 27 7 43 N15 30.00R WCI 15 WESTERLY MOCLDY 25 6 44 N10 30.02S WCI 15 IN MA CITY SKY/WX TMP DP RH WIND PRES REMARKS BOSTON MOCLDY 19 4 51 NW16 30.04R WCI 4 WORCESTER PTCLDY 15 2 56 N8 29.97R WCI 4 WESTFIELD PTCLDY 10 1 67 E3 30.05R PROVINCETOWN PTCLDY 25 9 50 N20G28 30.02R WCI 11 NANTUCKET MOCLDY 30 15 53 N10 30.00R WCI 21 $$ ANZ330-335-338-340-345-350-353-355-260600- COASTAL MARINE OBSERVATIONS STATION/POSITION TIME SKY/WX TEMP WIND PRES VSBY WAVE AIR SEA DIR/SP/G HT/PER (UTC) (F) (DEG/KT/KT) (MB) (MI) (FT/S) NY HARB ENTRANCE 0500 35 42 30/ 14/ 16 1014.9 2/11 4S FIRE IS 0500 39 N/A 3/11 20S FIRE ISLAND 0400 41 1014.9 4/10 23SW MTP 0500 N/A 5/11 HUDSON CANYON NOT AVBL EXECUTION ROCKS 0500 29 35 10/ 14/ 17 N/A WESTERN LI SOUND 0500 28 20/ 16/ 17 N/A 1/ 2 CENTRAL LI SOUND 0400 26 36 360/ 16/ 19 N/A 2/ 2 EASTERN LI SOUND NOT AVBL ROBBINS REEF 0500 31 360/ 13/ 14 1014.4 $$ >>>>>>>>>>>>>>>>>>>>>>>>>>>> KEY <<<<<<<<<<<<<<<<<<<<<<<<<<< > < > SKY/WX - SKY CONDITION/PRESENT WEATHER < > TMP - TEMPERATURE IN FAHRENHEIT < > DP - DEWPOINT IN FAHRENHEIT < > RH - RELATIVE HUMIDITY IN PERCENT < > WIND - DIRECTION AND SPEED IN MPH < > PRES - MEAN SEA LEVEL PRESSURE IN INCHES OF HG < > WCI - WIND CHILL INDEX < > VSB - VISIBILITY IN MILES < > HX - HEAT INDEX < > TC - TEMPERATURE IN CELSIUS < > VRB - VARIABLE WIND DIRECTION < > < >>>>>>>>>>>>>>>>>>>>>>>>>>>> KEY <<<<<<<<<<<<<<<<<<<<<<<<<<<

USA.gov is the U.S. government's official web portal to all federal, state and local government web resources and services.